UWE-3 (39446 NORAD) Tracking and Keplerian Element Data

This shows tracking and keplerian element data for the satellite.

Feedback or suggestion? Click here.




ElementValue
Catalog39446
NameUWE-3
Epoch Orbit48359
Epoch Day324.87584132
Epoch Year2022
RAAN282.3966
Inclination97.7069
Eccentricity0.0066422
Argument of Perigee300.1714
Mean Anonmoly59.2929
Mean Motion14.80217295
Decay Rate2.022E-05
L11 39446U 13066AG 22324.87584132 .00002022 00000+0 26300-3 0 9992
L22 39446 97.7069 282.3966 0066422 300.1714 59.2929 14.80217295483592



Live tracking and technical data element details for UWE-3 (NORAD 39446). UWE-3 can be tracked NOW for your location showing map with azimuth and elevation plus other details from your city location.







IsCatalogInMostPopularTable: catalog: 39446, numindb: 401
Update: records affected: 1



GetName: 39446 UWE-3

Hit Count: updated at: Mon, 28 Nov 2022 04:50:16 GMT